Meteo orario Koziniec

Oggi, 6 Marzo, Sabato

Tempo Temperatura Precipitazioni Vento Pressione Umidità
00:00 -4°C° 0 mm 3 m/s 749 mm Hg 67%
01:00 -4°C° 0 mm 3 m/s 750 mm Hg 71%
02:00 -5°C° 0 mm 3 m/s 750 mm Hg 76%
03:00 -5°C° 0 mm 3 m/s 750 mm Hg 74%
04:00 -5°C° 0 mm 4 m/s 750 mm Hg 73%
05:00 -5°C° 0 mm 4 m/s 750 mm Hg 72%
06:00 -5°C° 0 mm 3 m/s 751 mm Hg 72%
07:00 -5°C° 0 mm 3 m/s 751 mm Hg 72%
08:00 -5°C° 0 mm 3 m/s 752 mm Hg 72%
09:00 -4°C° 0 mm 3 m/s 752 mm Hg 63%
10:00 -2°C° 0 mm 3 m/s 752 mm Hg 55%
11:00 -1°C° 0 mm 3 m/s 752 mm Hg 46%
12:00 -2°C° 0 mm 4 m/s 752 mm Hg 46%
13:00 -1°C° 0 mm 4 m/s 752 mm Hg 46%
14:00 -1°C° 0 mm 4 m/s 752 mm Hg 46%
15:00 -1°C° 0 mm 4 m/s 751 mm Hg 48%
16:00 -1°C° 0 mm 4 m/s 751 mm Hg 49%
17:00 -1°C° 0 mm 4 m/s 750 mm Hg 50%
18:00 -1°C° 0 mm 4 m/s 749 mm Hg 54%
19:00 -2°C° 0 mm 5 m/s 749 mm Hg 58%
20:00 -4°C° 0 mm 5 m/s 748 mm Hg 62%
21:00 -4°C° 0 mm 6 m/s 748 mm Hg 62%
22:00 -4°C° 0 mm 6 m/s 747 mm Hg 62%
23:00 -3°C° 0 mm 7 m/s 746 mm Hg 62%

Domani, 7 Marzo, Domenica

Tempo Temperatura Precipitazioni Vento Pressione Umidità
00:00 -4°C° 0 mm 8 m/s 746 mm Hg 71%
01:00 -4°C° 0 mm 8 m/s 745 mm Hg 80%
02:00 -4°C° 0 mm 8 m/s 744 mm Hg 90%
03:00 -4°C° 0.1 mm 9 m/s 743 mm Hg 90%
04:00 -4°C° 0.1 mm 9 m/s 742 mm Hg 91%
05:00 -4°C° 0.1 mm 9 m/s 742 mm Hg 92%
06:00 -4°C° 0.3 mm 9 m/s 741 mm Hg 93%
07:00 -4°C° 0.3 mm 9 m/s 741 mm Hg 93%
08:00 -4°C° 0.3 mm 9 m/s 741 mm Hg 94%
09:00 -3°C° 0.5 mm 7 m/s 741 mm Hg 93%
10:00 -3°C° 0.5 mm 6 m/s 741 mm Hg 92%
11:00 -3°C° 0.5 mm 4 m/s 741 mm Hg 91%
12:00 -2°C° 0.5 mm 5 m/s 741 mm Hg 92%
13:00 -2°C° 0.5 mm 5 m/s 741 mm Hg 93%
14:00 -3°C° 0.5 mm 6 m/s 741 mm Hg 93%
15:00 -3°C° 0.6 mm 6 m/s 741 mm Hg 91%
16:00 -3°C° 0.6 mm 6 m/s 740 mm Hg 88%
17:00 -3°C° 0.6 mm 6 m/s 740 mm Hg 85%
18:00 -4°C° 0.1 mm 6 m/s 741 mm Hg 81%
19:00 -4°C° 0.1 mm 5 m/s 741 mm Hg 78%
20:00 -4°C° 0.1 mm 4 m/s 741 mm Hg 74%
21:00 -5°C° 0 mm 4 m/s 741 mm Hg 74%
22:00 -5°C° 0 mm 4 m/s 742 mm Hg 75%
23:00 -6°C° 0 mm 3 m/s 742 mm Hg 76%

Dopodomani, 8 Marzo, Lunedi

Tempo Temperatura Precipitazioni Vento Pressione Umidità
00:00 -7°C° 0 mm 4 m/s 742 mm Hg 77%
01:00 -7°C° 0 mm 4 m/s 742 mm Hg 79%
02:00 -7°C° 0 mm 4 m/s 742 mm Hg 80%
03:00 -7°C° 0 mm 4 m/s 742 mm Hg 81%
04:00 -7°C° 0 mm 4 m/s 742 mm Hg 81%
05:00 -7°C° 0 mm 4 m/s 742 mm Hg 82%
06:00 -7°C° 0 mm 4 m/s 743 mm Hg 82%
07:00 -5°C° 0 mm 4 m/s 743 mm Hg 82%
08:00 -5°C° 0 mm 4 m/s 743 mm Hg 82%
09:00 -5°C° 0.1 mm 5 m/s 743 mm Hg 77%
10:00 -5°C° 0.1 mm 5 m/s 744 mm Hg 72%
11:00 -4°C° 0.1 mm 6 m/s 744 mm Hg 67%
12:00 -4°C° 0.1 mm 5 m/s 744 mm Hg 65%
13:00 -2°C° 0.1 mm 5 m/s 744 mm Hg 64%
14:00 -2°C° 0.1 mm 5 m/s 745 mm Hg 62%
15:00 -4°C° 0 mm 5 m/s 745 mm Hg 62%
16:00 -4°C° 0 mm 5 m/s 745 mm Hg 63%
17:00 -4°C° 0 mm 5 m/s 745 mm Hg 63%
18:00 -4°C° 0 mm 4 m/s 746 mm Hg 67%
19:00 -5°C° 0 mm 4 m/s 746 mm Hg 71%
20:00 -5°C° 0 mm 3 m/s 747 mm Hg 75%
21:00 -6°C° 0 mm 3 m/s 747 mm Hg 75%
22:00 -5°C° 0 mm 2 m/s 748 mm Hg 75%
23:00 -6°C° 0 mm 2 m/s 748 mm Hg 76%

9 Marzo, Martedi

Tempo Temperatura Precipitazioni Vento Pressione Umidità
00:00 -6°C° 0 mm 2 m/s 749 mm Hg 76%
01:00 -6°C° 0 mm 2 m/s 749 mm Hg 76%
02:00 -6°C° 0 mm 2 m/s 749 mm Hg 76%
03:00 -4°C° 0 mm 1 m/s 750 mm Hg 76%
04:00 -6°C° 0 mm 1 m/s 750 mm Hg 77%
05:00 -6°C° 0 mm 1 m/s 750 mm Hg 77%
06:00 -6°C° 0 mm 1 m/s 750 mm Hg 76%
07:00 -6°C° 0 mm 1 m/s 750 mm Hg 74%
08:00 -6°C° 0 mm 0 m/s 750 mm Hg 72%
09:00 -4°C° 0 mm 1 m/s 750 mm Hg 66%
10:00 -3°C° 0 mm 1 m/s 751 mm Hg 59%
11:00 -4°C° 0 mm 2 m/s 751 mm Hg 53%
12:00 -4°C° 0 mm 2 m/s 751 mm Hg 51%
13:00 -3°C° 0 mm 2 m/s 751 mm Hg 48%
14:00 -4°C° 0 mm 3 m/s 751 mm Hg 46%
15:00 -2°C° 0 mm 3 m/s 750 mm Hg 46%
16:00 -2°C° 0 mm 3 m/s 750 mm Hg 46%
17:00 -2°C° 0 mm 3 m/s 749 mm Hg 46%
18:00 -3°C° 0 mm 2 m/s 749 mm Hg 50%
19:00 -4°C° 0 mm 2 m/s 749 mm Hg 53%
20:00 -4°C° 0 mm 2 m/s 749 mm Hg 57%
21:00 -6°C° 0 mm 3 m/s 749 mm Hg 58%
22:00 -6°C° 0 mm 3 m/s 749 mm Hg 59%
23:00 -6°C° 0 mm 3 m/s 749 mm Hg 60%

10 Marzo, Mercoledi

Tempo Temperatura Precipitazioni Vento Pressione Umidità
00:00 -5°C° 0 mm 3 m/s 748 mm Hg 61%
01:00 -5°C° 0 mm 4 m/s 748 mm Hg 62%
02:00 -5°C° 0 mm 4 m/s 748 mm Hg 63%
03:00 -5°C° 0 mm 4 m/s 747 mm Hg 64%
04:00 -5°C° 0 mm 4 m/s 747 mm Hg 66%
05:00 -5°C° 0 mm 4 m/s 746 mm Hg 67%
06:00 -5°C° 0 mm 4 m/s 746 mm Hg 69%
07:00 -5°C° 0 mm 4 m/s 746 mm Hg 71%
08:00 -6°C° 0 mm 5 m/s 745 mm Hg 73%
09:00 -5°C° 0.1 mm 5 m/s 745 mm Hg 79%
10:00 -4°C° 0.1 mm 5 m/s 745 mm Hg 84%
11:00 -2°C° 0.1 mm 5 m/s 745 mm Hg 89%
12:00 -2°C° 0.1 mm 5 m/s 744 mm Hg 91%
13:00 -1°C° 0.1 mm 5 m/s 744 mm Hg 92%
14:00 -1°C° 0.1 mm 5 m/s 743 mm Hg 94%
15:00 -1°C° 0 mm 5 m/s 743 mm Hg 94%
16:00 -1°C° 0 mm 5 m/s 742 mm Hg 95%
17:00 -1°C° 0 mm 5 m/s 742 mm Hg 96%
18:00 -1°C° 0 mm 5 m/s 741 mm Hg 94%
19:00 -1°C° 0 mm 5 m/s 741 mm Hg 92%
20:00 -1°C° 0 mm 5 m/s 740 mm Hg 90%
21:00 -1°C° 0 mm 5 m/s 740 mm Hg 88%
22:00 -1°C° 0 mm 5 m/s 739 mm Hg 86%
23:00 -1°C° 0 mm 5 m/s 738 mm Hg 83%

11 Marzo, Giovedi

Tempo Temperatura Precipitazioni Vento Pressione Umidità
00:00 -2°C° 0 mm 6 m/s 737 mm Hg 87%
01:00 -2°C° 0 mm 6 m/s 736 mm Hg 90%
02:00 -2°C° 0 mm 7 m/s 735 mm Hg 93%
03:00 -1°C° 0.2 mm 7 m/s 734 mm Hg 93%
04:00 -1°C° 0.2 mm 7 m/s 733 mm Hg 94%
05:00 0°C° 0.2 mm 7 m/s 732 mm Hg 94%
06:00 0°C° 0.3 mm 7 m/s 732 mm Hg 94%
07:00 0°C° 0.3 mm 7 m/s 731 mm Hg 94%
08:00 +1°C° 0.3 mm 8 m/s 730 mm Hg 94%
09:00 +1°C° 0.6 mm 8 m/s 730 mm Hg 94%
10:00 +1°C° 0.6 mm 8 m/s 730 mm Hg 94%
11:00 +2°C° 0.6 mm 8 m/s 729 mm Hg 93%
12:00 +2°C° 0.1 mm 9 m/s 729 mm Hg 91%
13:00 +3°C° 0.1 mm 9 m/s 728 mm Hg 89%
14:00 +3°C° 0.1 mm 9 m/s 728 mm Hg 86%
15:00 +5°C° 0 mm 9 m/s 727 mm Hg 85%
16:00 +5°C° 0 mm 9 m/s 727 mm Hg 83%
17:00 +5°C° 0 mm 8 m/s 726 mm Hg 81%
18:00 +5°C° 0.3 mm 8 m/s 726 mm Hg 82%
19:00 +5°C° 0.3 mm 8 m/s 726 mm Hg 82%
20:00 +4°C° 0.3 mm 8 m/s 726 mm Hg 83%
21:00 +4°C° 0 mm 8 m/s 726 mm Hg 82%
22:00 +2°C° 0 mm 9 m/s 727 mm Hg 82%
23:00 +1°C° 0 mm 9 m/s 727 mm Hg 81%
Mostrare altro